Weather Roundup
Issued by NWS Springfield, MO

Home | Current Version | Previous Version | Text Only | Print | Product List | Glossary On
Versions: 1 2 3 4 5 6 7 8 9 10 11 12 13 14 15 16 17 18 19 20 21 22 23 24 25 26 27 28 29 30 31 32 33 34 35 36 37 38 39 40 41 42 43 44 45 46 47 48 49 50
000
NZUS99 KSGF 010607
HRRSGF

HOURLY WEATHER
NATIONAL WEATHER SERVICE SPRINGFIELD MO
100 AM CDT MON MAY 01 2017

......SGF CWA......

CITY           SKY/WX    TMP DP  RH WIND       PRES   REMARKS
SPRINGFIELD    CLOUDY    48  38  68 SW18G29   29.55R
6HR MIN TEMP:  47; 6HR MAX TEMP:  54; 6HR PCP: TRACE;

JOPLIN         CLOUDY    46  42  86 SW23G32   29.56R
6HR MIN TEMP:  45; 6HR MAX TEMP:  52; 6HR PCP:  0.07;

WEST PLAINS    CLOUDY    49  42  77 SW10      29.62F
6HR MIN TEMP:  49; 6HR MAX TEMP:  63; 6HR PCP:  0.02;

ROLLA          PTCLDY    48  39  71 S14G23    29.53F
6HR MIN TEMP:  48; 6HR MAX TEMP:  65;

OSAGE BEACH    CLOUDY    50  39  66 S16       29.53F
BRANSON        CLOUDY    48  34  57 SW10G21   29.62S

......SURROUNDING SGF CWA......

CITY           SKY/WX    TMP DP  RH WIND       PRES   REMARKS
CHANUTE        CLOUDY    45  40  82 W16G29    29.51R
PARSONS        LGT RAIN  44  41  89 SW17G25   29.56R
COFFEYVILLE    CLOUDY    45  40  82 W16G25    29.58R
EMPORIA        LGT RAIN  41  41 100 W20G28    29.45R
GROVE OK       CLOUDY    46  39  76 SW12G29   29.62F
ROGERS AR      CLOUDY    45  37  73 SW20G29   29.63R
HARRISON AR    CLOUDY    48  35  60 SW15G24   29.63S
NEAR YELLVILLE CLOUDY   N/A N/A N/A SW13G25   29.61S

......KANSAS AND MISSOURI......

CITY           SKY/WX    TMP DP  RH WIND       PRES   REMARKS
KANSAS CTY INT DRIZZLE   44  42  93 S5        29.42F
DOWNTOWN KC    CLOUDY   N/A N/A N/A S6        29.43F
COLUMBIA       MOCLDY    49  40  71 S14       29.50F
SEDALIA        LGT RAIN  48  43  82 S15G23    29.48F
ST JOSEPH      CLOUDY    44  42  93 S7        29.42F
ST LOUIS       MOCLDY    58  37  45 SW12      29.56R
SPIRIT OF STL  CLOUDY    58  40  51 SW12        N/A
KIRKSVILLE     CLOUDY    47  31  53 S7        29.47F
WICHITA        CLOUDY    40  35  83 NW18G29   29.59R WCI  31
TOPEKA         CLOUDY    44  43  96 CALM      29.43S
OLATHE         CLOUDY    43  43 100 S6        29.43F

......TENNESSEE......

CITY           SKY/WX    TMP DP  RH WIND       PRES   REMARKS
MEMPHIS        CLEAR     56  50  80 S13       29.74F
NASHVILLE      LGT RAIN  68  64  87 S21G29    29.76F

......ARKANSAS.......

CITY           SKY/WX    TMP DP  RH WIND       PRES   REMARKS
FAYETTEVILLE   LGT RAIN  45  38  76 SW12      29.66R
FT SMITH       CLOUDY    51  34  52 SW20G25   29.70S
LITTLE ROCK    PTCLDY    53  42  66 SW14G23   29.73S

......OKLAHOMA.......

CITY           SKY/WX    TMP DP  RH WIND       PRES   REMARKS
TULSA          CLOUDY    46  37  71 W13       29.65S
PONCA CITY     CLOUDY    42  35  76 W12G22    29.65R
MCALESTER      PTCLDY    47  35  63 W16G25    29.77R
OKLAHOMA CITY  CLOUDY    43  35  73 W21G31    29.78R

......IOWA............

CITY           SKY/WX    TMP DP  RH WIND       PRES   REMARKS
DES MOINES     CLOUDY    46  45  96 E6        29.42F
QUAD CITIES    CLOUDY    48  46  93 S7        29.48R

......ILLINOIS........

CITY           SKY/WX    TMP DP  RH WIND       PRES   REMARKS
QUINCY         CLOUDY    51  43  74 W7        29.50F
CHICAGO        LGT RAIN  46  44  93 N8        29.52F



USA.gov is the U.S. government's official web portal to all federal, state and local government web resources and services.